Tracking 25534 objects as of 29-Jan-2022
HD Live streaming from Space Station
objects crossing your sky now

THOR ABLESTAR DEB

Track THOR ABLESTAR DEB now!
10-day predictions


NORAD ID: 119
Int'l Code: 1961-015D
Perigee: 742.4 km
Apogee: 898.9 km
Inclination: 66.7 °
Period: 101.2 minutes
Semi major axis: 7191 km
RCS: 0.2611 m2 (medium)
Launch date: June 29, 1961
Source: United States (US)
Launch site: AIR FORCE EASTERN TEST RANGE (AFETR)

Note: This is SATELLITE DEBRIS
aabbcc
Your satellite tracking list
Your tracking list is empty




NASA's NSSDC Master Catalog

Two Line Element Set (TLE):
1 00119U 61015D   22028.87633903  .00000035  00000-0  49106-4 0  9999
2 00119  66.7269 217.6931 0108794 335.1816  24.4067 14.23504667130278
Source of the keplerian elements: AFSPC